Location: Clinton NY
(43.0598°N, 75.3602°W)
Time: 11:24:57
(UTC-04:00)

Amateur Radio Satellites - All Passes

Search period start: 07 July 2015 10:54
Search period end: 08 July 2015 10:54
Location: Clinton NY, 43.0598°N, 75.3602°W

Satellite Date Start Highest point End Downlink Frequencies (MHz)
Time Altitude Azimuth
DUCHIFAT 1 07 Jul 10:55:01 10:59:00 43° 72° (ENE) 11:03:01 145.980
BUGSAT 1 07 Jul 10:58:15 11:01:58 31° 70° (ENE) 11:05:42 437.445
POLYITAN 1 07 Jul 11:04:01 11:08:10 58° 73° (ENE) 11:12:19 437.675
ESTCUBE 1 07 Jul 11:07:20 11:08:47 12° 87° (E) 11:10:30 437.505/2401.250
DX 1 07 Jul 11:07:42 11:11:32 30° 96° (E) 11:15:23 434.975-435.025
CINEMA 3 07 Jul 11:08:58 11:12:28 26° 291° (WNW) 11:15:59 145.822/145.860
PHONESAT 2.4 07 Jul 11:09:37 11:12:59 53° 186° (S) 11:16:22 2401.200-2431.200
VELOX 1 07 Jul 11:10:50 11:13:53 19° 92° (E) 11:17:03 145.980
Cosmos 2499 07 Jul 11:10:53 11:17:56 89° 98° (E) 11:25:12 435.465 / 435.565
ANTELSAT 07 Jul 11:12:12 11:16:20 47° 261° (W) 11:20:29 437.575/2403.000
COMPASS 1 07 Jul 11:14:01 11:17:02 19° 294° (WNW) 11:19:56 437.405
GONETS M04 07 Jul 11:16:07 11:23:04 24° 298° (WNW) 11:29:43
HO-68 07 Jul 11:16:12 11:22:24 32° 299° (WNW) 11:28:28 435.675
HUMSAT D 07 Jul 11:17:02 11:21:06 49° 99° (E) 11:25:13 437.325/437.525
TIGRISAT 07 Jul 11:23:20 11:27:19 37° 263° (W) 11:31:17 435.000
UKube-1 07 Jul 11:23:35 11:27:41 41° 98° (E) 11:31:47 .
ZACube-1 07 Jul 11:24:04 11:28:15 58° 286° (WNW) 11:32:29 437.345
Oscar 11 07 Jul 11:26:08 11:30:06 34° 290° (WNW) 11:34:01 145.826/435.025
POPSAT HIP 1 07 Jul 11:33:01 11:37:14 69° 258° (WSW) 11:41:28 437.405
QB50P2 07 Jul 11:33:09 11:37:22 66° 258° (WSW) 11:41:36 145.880/145.840
ISS 07 Jul 11:35:29 11:37:59 20° 10° (N) 11:40:29 145.825
CUBEBUG 2 07 Jul 11:36:07 11:39:45 27° 290° (WNW) 11:43:22 437.445
VERMONT LUNAR 07 Jul 11:45:14 11:47:02 14° 207° (SSW) 11:48:48 437.305
AISAT 07 Jul 11:58:04 12:02:27 62° 101° (E) 12:06:48 437.250
50 SAT 07 Jul 11:58:48 12:02:44 76° 101° (E) 12:06:40 437.505
FUNcube-1 07 Jul 11:59:19 12:02:53 26° 291° (WNW) 12:06:25 145.935
CUBEBUG 1 07 Jul 12:05:57 12:10:04 40° 98° (E) 12:14:09 437.445
UNISAT 6 07 Jul 12:06:40 12:08:53 13° 271° (W) 12:10:55 437.425
Oscar 19 07 Jul 12:09:40 12:12:18 15° 61° (ENE) 12:15:10 437.125/150
QB50P1 07 Jul 12:12:34 12:16:09 25° 266° (W) 12:19:39 145.935-145.965
DELFI C3 07 Jul 12:14:35 12:16:55 15° 295° (WNW) 12:19:05 145.870
UWE-3 07 Jul 12:21:53 12:23:53 13° 296° (WNW) 12:25:42 435.000/436.395/437.385
NANOSAT C BR1 07 Jul 12:26:07 12:29:12 19° 268° (W) 12:32:10 145.865
DUCHIFAT 1 07 Jul 12:32:14 12:35:04 17° 269° (W) 12:37:45 145.980
BUGSAT 1 07 Jul 12:34:04 12:37:29 23° 266° (W) 12:40:48 437.445
ESTCUBE 1 07 Jul 12:41:42 12:46:15 71° 285° (WNW) 12:50:44 437.505/2401.250
POLYITAN 1 07 Jul 12:42:29 12:44:30 13° 271° (W) 12:46:18 437.675
DX 1 07 Jul 12:44:03 12:47:42 26° 293° (WNW) 12:51:14 434.975-435.025
VELOX 1 07 Jul 12:46:30 12:50:41 42° 289° (WNW) 12:54:49 145.980
RS-15 07 Jul 12:46:54 12:57:39 42° 250° (WSW) 13:08:29 29.354- 29.394
PHONESAT 2.4 07 Jul 12:47:47 12:50:40 25° 202° (SSW) 12:53:32 2401.200-2431.200
YUBILEINY 07 Jul 12:53:27 12:59:27 21° 59° (ENE) 13:05:50 435.215
HUMSAT D 07 Jul 12:53:55 12:56:30 16° 295° (WNW) 12:58:56 437.325/437.525
SPROUT 07 Jul 12:55:34 12:59:36 40° 98° (E) 13:03:39 437.525
UKube-1 07 Jul 13:00:23 13:03:34 20° 295° (WNW) 13:06:37 .
Cosmos 2499 07 Jul 13:08:00 13:12:24 16° 301° (WNW) 13:16:32 435.465 / 435.565
ISS 07 Jul 13:11:39 13:14:52 59° 30° (NNE) 13:18:04 145.825
Cosmos 2491 07 Jul 13:22:58 13:25:15 12° 74° (ENE) 13:28:15 435.465 / 435.565
TISAT 1 07 Jul 13:24:16 13:28:23 54° 100° (E) 13:32:28 437.305
AISAT 07 Jul 13:36:08 13:38:35 14° 297° (WNW) 13:40:51 437.250
CUBEBUG 1 07 Jul 13:42:57 13:46:11 20° 294° (WNW) 13:49:17 437.445
BEESAT 07 Jul 13:44:43 13:47:33 16° 90° (E) 13:50:35 436.000
Oscar 19 07 Jul 13:45:57 13:51:06 79° 258° (WSW) 13:56:15 437.125/150
AO-7 07 Jul 13:51:45 13:56:37 18° 47° (NE) 14:01:49 29.400- 29.500
BEESAT 2 07 Jul 13:56:47 13:57:42 11° 33° (NNE) 13:58:46 435.950
SWISSCUBE 07 Jul 14:00:03 14:03:57 25° 93° (E) 14:07:55 437.505
ITAMSAT 1 07 Jul 14:04:53 14:09:50 46° 70° (ENE) 14:14:51 435.822/435.867
ITUPSAT 1 07 Jul 14:06:55 14:10:55 26° 94° (E) 14:14:59 437.325
Gurwin Techsat 1B 07 Jul 14:17:37 14:22:51 62° 73° (ENE) 14:28:07 435.225
SPROUT 07 Jul 14:32:20 14:35:26 19° 294° (WNW) 14:38:24 437.525
AIST 1 07 Jul 14:35:06 14:37:25 15° 86° (E) 14:39:57
JAS-2 07 Jul 14:37:59 14:42:13 26° 64° (ENE) 14:46:48 435.910
ISS 07 Jul 14:48:42 14:50:59 18° 226° (SW) 14:53:14 145.825
YUBILEINY 07 Jul 14:48:54 14:57:44 90° 257° (WSW) 15:06:33 435.215
PCSat 07 Jul 14:49:37 14:54:23 33° 111° (ESE) 14:59:14 145.827
TISAT 1 07 Jul 15:01:23 15:03:45 14° 296° (WNW) 15:05:57 437.305
SO-50 07 Jul 15:03:41 15:04:23 10° 107° (ESE) 15:05:23 436.795
Cosmos 2491 07 Jul 15:11:54 15:20:33 65° 93° (E) 15:29:15 435.465 / 435.565
BEESAT 3 07 Jul 15:15:38 15:19:38 53° 52° (NE) 15:23:33 437.485
BEESAT 07 Jul 15:21:07 15:25:51 58° 287° (WNW) 15:30:32 436.000
BEESAT 2 07 Jul 15:32:34 15:36:39 63° 54° (NE) 15:40:39 435.950
AIST 2 07 Jul 15:35:40 15:38:56 22° 42° (NE) 15:42:14 435.215
SWISSCUBE 07 Jul 15:37:29 15:41:56 37° 290° (WNW) 15:46:18 437.505
AO-7 07 Jul 15:39:50 15:48:05 69° 68° (ENE) 15:56:25 29.400- 29.500
KKS-1 07 Jul 15:41:23 15:45:36 42° 98° (E) 15:49:49 437.445
HORYU 2 07 Jul 15:41:55 15:46:14 56° 73° (ENE) 15:50:36 437.375
ITUPSAT 1 07 Jul 15:44:29 15:48:54 36° 291° (WNW) 15:53:14 437.325
ITAMSAT 1 07 Jul 15:45:25 15:49:36 23° 268° (W) 15:53:41 435.822/435.867
Cosmos 2504 07 Jul 15:50:04 15:56:18 28° 68° (ENE) 16:03:04 435.465 / 435.565
Gurwin Techsat 1B 07 Jul 15:59:44 16:03:20 18° 271° (W) 16:06:44 435.225
AIST 1 07 Jul 16:10:23 16:14:40 50° 282° (WNW) 16:19:00
JAS-2 07 Jul 16:22:19 16:27:12 40° 264° (W) 16:32:21 435.910
MOZHAYETS 4 07 Jul 16:24:15 16:26:35 14° 88° (E) 16:29:09
STARS 07 Jul 16:24:54 16:29:18 76° 102° (ESE) 16:33:40 437.465
PCSat 07 Jul 16:32:41 16:37:45 39° 309° (NW) 16:42:49 145.827
O/OREOS (USA 219) 07 Jul 16:33:05 16:37:27 46° 62° (ENE) 16:41:51 437.305
SO-50 07 Jul 16:39:27 16:44:12 86° 123° (ESE) 16:49:08 436.795
YUBILEINY 07 Jul 16:47:45 16:53:29 19° 281° (WNW) 16:58:47 435.215
BEESAT 3 07 Jul 16:54:47 16:57:11 15° 249° (WSW) 16:59:26 437.485
CUTE-I 07 Jul 17:06:41 17:10:08 18° 61° (ENE) 17:13:47 437.470
Cosmos 2491 07 Jul 17:10:36 17:18:10 30° 295° (WNW) 17:25:32 435.465 / 435.565
BEESAT 2 07 Jul 17:12:20 17:14:15 13° 250° (WSW) 17:15:59 435.950
AIST 2 07 Jul 17:13:42 17:17:46 47° 242° (WSW) 17:21:44 435.215
KKS-1 07 Jul 17:18:42 17:21:59 20° 294° (WNW) 17:25:08 437.445
HORYU 2 07 Jul 17:20:51 17:23:18 14° 271° (W) 17:25:34 437.375
AO-7 07 Jul 17:34:40 17:41:37 27° 268° (W) 17:48:21 29.400- 29.500
Cubesat XI-IV 07 Jul 17:40:22 17:45:08 34° 67° (ENE) 17:50:00 437.490
Cosmos 2504 07 Jul 17:41:33 17:49:01 62° 267° (W) 17:56:59 435.465 / 435.565
MOZHAYETS 4 07 Jul 17:59:42 18:04:19 62° 286° (WNW) 18:08:53
STARS 07 Jul 18:03:29 18:05:12 12° 299° (WNW) 18:06:42 437.465
CUSAT 1 07 Jul 18:11:43 18:13:22 15° 71° (ENE) 18:15:06 437.405
O/OREOS (USA 219) 07 Jul 18:13:23 18:16:34 18° 258° (WSW) 18:19:37 437.305
SO-50 07 Jul 18:22:02 18:25:27 18° 324° (NW) 18:28:49 436.795
CUBESAT XI-V 07 Jul 18:36:19 18:40:19 28° 94° (E) 18:44:20 437.345
CUTE-I 07 Jul 18:44:22 18:49:43 68° 258° (WSW) 18:55:07 437.470
BRITE-PL 07 Jul 18:53:14 18:56:55 20° 66° (ENE) 19:00:36 437.365/2234.400
PRISM 07 Jul 18:57:38 18:59:09 12° 88° (E) 19:00:54 437.425
STRAND 1 07 Jul 19:17:45 19:21:56 25° 93° (E) 19:26:13 437.568
Cubesat XI-IV 07 Jul 19:20:25 19:25:15 33° 265° (W) 19:30:04 437.490
CANX-2 07 Jul 19:22:54 19:23:50 11° 62° (ENE) 19:25:00 2200.000
GONETS M04 07 Jul 19:25:43 19:33:44 40° 70° (ENE) 19:41:50
DANDE 07 Jul 19:39:59 19:42:24 30° 265° (W) 19:44:44 436.750
GOMX 1 07 Jul 19:47:42 19:52:16 37° 71° (ENE) 19:56:36 467.674
CUSAT 1 07 Jul 19:55:06 19:55:49 11° 268° (W) 19:56:25 437.405
HO-68 07 Jul 19:57:26 20:04:05 45° 65° (ENE) 20:10:50 435.675
SEEDS 07 Jul 19:59:19 20:02:16 19° 67° (ENE) 20:05:20 437.485
AAUSAT CUBESAT 2 07 Jul 20:02:16 20:04:25 14° 64° (ENE) 20:06:44 437.432
CUBESAT XI-V 07 Jul 20:13:37 20:17:46 31° 291° (WNW) 20:21:50 437.345
DOVE 4 07 Jul 20:14:32 20:18:59 41° 72° (ENE) 20:23:14 437.250
COMPASS 1 07 Jul 20:29:49 20:33:29 32° 70° (ENE) 20:37:14 437.405
BRITE-PL 07 Jul 20:29:51 20:35:09 56° 260° (W) 20:40:06 437.365/2234.400
PRISM 07 Jul 20:30:55 20:35:04 60° 287° (WNW) 20:39:10 437.425
CINEMA 3 07 Jul 20:34:32 20:38:21 30° 70° (ENE) 20:42:05 145.822/145.860
Oscar 11 07 Jul 20:46:32 20:49:39 21° 67° (ENE) 20:52:54 145.826/435.025
ZACube-1 07 Jul 20:47:35 20:49:07 12° 63° (ENE) 20:50:50 437.345
AUBIESAT-1 07 Jul 20:49:17 20:50:33 11° 94° (E) 20:52:07 437.475
CUTE 1.7 + AOD 2 07 Jul 20:51:03 20:55:15 86° 77° (ENE) 20:59:30 437.475
CANX-2 07 Jul 20:55:00 20:59:12 78° 258° (WSW) 21:03:27 2200.000
STRAND 1 07 Jul 20:56:30 21:01:19 41° 291° (WNW) 21:06:04 437.568
CUBEBUG 2 07 Jul 20:59:02 21:02:30 25° 69° (ENE) 21:05:59 437.445
Cosmos 2499 07 Jul 20:59:37 21:06:40 35° 70° (ENE) 21:14:18 435.465 / 435.565
FUNcube-1 07 Jul 21:20:00 21:23:25 25° 69° (ENE) 21:26:52 145.935
GONETS M04 07 Jul 21:22:34 21:30:45 46° 271° (W) 21:38:49
M-CUBED/EXP-1 PRIME 07 Jul 21:24:55 21:28:48 31° 102° (ESE) 21:32:56 437.505
GOMX 1 07 Jul 21:26:16 21:30:28 26° 266° (W) 21:34:23 467.674
DELFI C3 07 Jul 21:26:20 21:29:59 35° 71° (ENE) 21:33:41 145.870
SEEDS 07 Jul 21:33:53 21:37:48 38° 263° (W) 21:41:46 437.485
AAUSAT CUBESAT 2 07 Jul 21:35:33 21:39:37 54° 260° (W) 21:43:42 437.432
UWE-3 07 Jul 21:41:39 21:45:47 58° 74° (ENE) 21:49:54 435.000/436.395/437.385
HO-68 07 Jul 21:45:24 21:51:57 37° 264° (W) 21:58:27 435.675
DOVE 4 07 Jul 21:53:19 21:56:56 21° 268° (W) 22:00:17 437.250
DX 1 07 Jul 22:04:12 22:08:01 31° 69° (ENE) 22:11:54 434.975-435.025
COMPASS 1 07 Jul 22:05:55 22:09:13 22° 267° (W) 22:12:28 437.405
ESTCUBE 1 07 Jul 22:07:59 22:10:08 14° 62° (ENE) 22:12:30 437.505/2401.250
VELOX 1 07 Jul 22:09:29 22:12:43 20° 66° (ENE) 22:16:03 145.980
HUMSAT D 07 Jul 22:09:45 22:13:33 38° 72° (ENE) 22:17:22 437.325/437.525
CINEMA 3 07 Jul 22:11:50 22:15:34 25° 266° (W) 22:19:08 145.822/145.860
UKube-1 07 Jul 22:19:11 22:23:14 40° 70° (ENE) 22:27:19 .
UNISAT 6 07 Jul 22:20:47 22:21:41 11° 87° (E) 22:22:52 437.425
ZACube-1 07 Jul 22:20:52 22:25:01 66° 259° (W) 22:29:10 437.345
AUBIESAT-1 07 Jul 22:21:24 22:25:43 78° 290° (WNW) 22:30:18 437.475
Oscar 11 07 Jul 22:21:36 22:25:37 38° 263° (W) 22:29:39 145.826/435.025
CUBEBUG 2 07 Jul 22:35:27 22:39:09 28° 265° (W) 22:42:45 437.445
50 SAT 07 Jul 22:43:41 22:47:20 45° 73° (ENE) 22:51:02 437.505
Cosmos 2499 07 Jul 22:52:27 23:00:07 52° 269° (W) 23:08:15 435.465 / 435.565
FUNcube-1 07 Jul 22:56:04 22:59:42 27° 265° (W) 23:03:15 145.935
AISAT 07 Jul 22:56:28 23:00:52 62° 74° (ENE) 23:05:18 437.250
M-CUBED/EXP-1 PRIME 07 Jul 22:59:48 23:03:32 28° 295° (WNW) 23:07:24 437.505
DELFI C3 07 Jul 23:02:18 23:05:13 19° 268° (W) 23:08:02 145.870
CUBEBUG 1 07 Jul 23:02:49 23:06:56 38° 71° (ENE) 23:11:03 437.445
ANTELSAT 07 Jul 23:02:55 23:06:50 31° 96° (E) 23:10:52 437.575/2403.000
TIGRISAT 07 Jul 23:13:27 23:17:33 38° 97° (E) 23:21:46 435.000
POPSAT HIP 1 07 Jul 23:18:10 23:20:58 18° 91° (E) 23:23:53 437.405
QB50P2 07 Jul 23:18:22 23:21:16 18° 92° (E) 23:24:17 145.880/145.840
UWE-3 07 Jul 23:20:58 23:22:46 12° 272° (W) 23:24:21 435.000/436.395/437.385
SO-50 07 Jul 23:30:30 23:33:58 19° 36° (NE) 23:37:31 436.795
PCSat 07 Jul 23:36:03 23:41:00 35° 49° (NE) 23:45:59 145.827
DX 1 07 Jul 23:40:36 23:44:17 25° 265° (W) 23:47:55 434.975-435.025
ESTCUBE 1 07 Jul 23:41:57 23:46:29 70° 258° (WSW) 23:51:03 437.505/2401.250
VELOX 1 07 Jul 23:44:45 23:49:01 42° 262° (W) 23:53:15 145.980
HUMSAT D 07 Jul 23:46:39 23:49:29 17° 269° (W) 23:52:12 437.325/437.525
SPROUT 07 Jul 23:50:35 23:54:30 36° 71° (ENE) 23:58:28 437.525
UNISAT 6 07 Jul 23:54:37 23:59:03 75° 285° (WNW) 00:03:33 437.425
QB50P1 07 Jul 23:55:52 23:59:55 45° 99° (E) 00:03:59 145.935-145.965
UKube-1 07 Jul 23:56:22 23:59:33 19° 268° (W) 00:02:38 .
NANOSAT C BR1 08 Jul 00:08:29 00:12:40 63° 101° (E) 00:16:50 145.865
DUCHIFAT 1 08 Jul 00:14:05 00:18:17 71° 102° (ESE) 00:22:27 145.980
BUGSAT 1 08 Jul 00:14:26 00:18:20 45° 99° (E) 00:22:12 437.445
TISAT 1 08 Jul 00:17:05 00:21:08 46° 72° (ENE) 00:25:12 437.305
50 SAT 08 Jul 00:20:20 00:22:16 13° 270° (W) 00:24:02 437.505
POLYITAN 1 08 Jul 00:24:04 00:28:18 84° 283° (WNW) 00:32:31 437.675
AISAT 08 Jul 00:35:43 00:37:56 13° 271° (W) 00:39:55 437.250
ANTELSAT 08 Jul 00:39:49 00:43:33 26° 292° (WNW) 00:47:15 437.575/2403.000
CUBEBUG 1 08 Jul 00:40:02 00:43:26 21° 268° (W) 00:46:44 437.445
TIGRISAT 08 Jul 00:50:43 00:54:07 22° 293° (WNW) 00:57:28 435.000
BEESAT 08 Jul 00:52:02 00:55:34 22° 65° (ENE) 00:59:15 436.000
POPSAT HIP 1 08 Jul 00:53:05 00:57:04 41° 288° (WNW) 01:01:00 437.405
QB50P2 08 Jul 00:53:24 00:57:21 39° 289° (WNW) 01:01:17 145.880/145.840
RS-15 08 Jul 01:00:28 01:09:32 34° 107° (ESE) 01:19:07 29.354- 29.394
SWISSCUBE 08 Jul 01:07:27 01:11:39 32° 68° (ENE) 01:15:57 437.505
SO-50 08 Jul 01:10:12 01:15:12 84° 235° (SW) 01:20:05 436.795
ITUPSAT 1 08 Jul 01:14:34 01:18:51 34° 69° (ENE) 01:23:12 437.325
PCSat 08 Jul 01:19:29 01:24:28 37° 248° (WSW) 01:29:23 145.827
Cosmos 2491 08 Jul 01:21:26 01:29:05 34° 67° (ENE) 01:36:51 435.465 / 435.565
SPROUT 08 Jul 01:27:23 01:30:43 21° 268° (W) 01:33:57 437.525
QB50P1 08 Jul 01:32:42 01:35:29 17° 295° (WNW) 01:38:08 145.935-145.965
NANOSAT C BR1 08 Jul 01:46:02 01:48:03 13° 297° (WNW) 01:49:52 145.865
BUGSAT 1 08 Jul 01:50:58 01:53:29 16° 295° (WNW) 01:55:50 437.445
DUCHIFAT 1 08 Jul 01:52:02 01:53:34 12° 298° (WNW) 01:54:54 145.980
TISAT 1 08 Jul 01:54:29 01:57:11 16° 269° (W) 01:59:43 437.305
Oscar 19 08 Jul 01:56:48 02:01:24 34° 96° (E) 02:06:04 437.125/150
YUBILEINY 08 Jul 01:57:27 02:03:16 21° 80° (E) 02:09:31 435.215
AIST 1 08 Jul 02:16:34 02:20:42 41° 76° (ENE) 02:24:48
ITAMSAT 1 08 Jul 02:18:12 02:20:57 15° 88° (E) 02:23:58 435.822/435.867
BEESAT 08 Jul 02:28:34 02:33:09 45° 261° (W) 02:37:45 436.000
Gurwin Techsat 1B 08 Jul 02:33:33 02:37:38 23° 92° (E) 02:41:51 435.225
KKS-1 08 Jul 02:40:20 02:44:32 43° 71° (ENE) 02:48:47 437.445
SWISSCUBE 08 Jul 02:45:20 02:49:31 29° 265° (W) 02:53:40 437.505
ITUPSAT 1 08 Jul 02:52:40 02:56:47 27° 266° (W) 03:00:52 437.325
SO-50 08 Jul 02:53:47 02:55:03 11° 253° (WSW) 02:56:00 436.795
RS-15 08 Jul 03:10:12 03:21:07 72° 309° (NW) 03:32:27 29.354- 29.394
Cosmos 2491 08 Jul 03:17:58 03:26:28 57° 269° (W) 03:34:51 435.465 / 435.565
STARS 08 Jul 03:22:26 03:26:50 75° 74° (ENE) 03:31:14 437.465
MOZHAYETS 4 08 Jul 03:27:25 03:30:04 16° 64° (ENE) 03:32:55
JAS-2 08 Jul 03:28:21 03:34:03 28° 93° (E) 03:40:23 435.910
Oscar 19 08 Jul 03:36:13 03:40:43 31° 293° (WNW) 03:45:10 437.125/150
AO-7 08 Jul 03:41:48 03:47:23 20° 89° (E) 03:53:21 29.400- 29.500
YUBILEINY 08 Jul 03:50:29 03:59:11 81° 279° (W) 04:07:57 435.215
AIST 1 08 Jul 03:55:10 03:58:03 17° 273° (W) 04:00:46
ITAMSAT 1 08 Jul 03:55:53 04:01:06 71° 286° (WNW) 04:06:16 435.822/435.867
Gurwin Techsat 1B 08 Jul 04:12:47 04:17:55 48° 290° (WNW) 04:22:59 435.225
KKS-1 08 Jul 04:18:14 04:21:25 18° 268° (W) 04:24:28 437.445
Cosmos 2504 08 Jul 04:25:01 04:28:52 16° 80° (E) 04:33:04 435.465 / 435.565
MOZHAYETS 4 08 Jul 05:02:20 05:06:52 60° 260° (W) 05:11:27
STARS 08 Jul 05:02:59 05:03:53 10° 273° (W) 05:04:30 437.465
HORYU 2 08 Jul 05:08:26 05:12:56 81° 286° (WNW) 05:17:25 437.375
JAS-2 08 Jul 05:12:48 05:19:26 60° 288° (WNW) 05:26:45 435.910
RS-15 08 Jul 05:26:36 05:36:02 30° 339° (NNW) 05:45:39 29.354- 29.394
AO-7 08 Jul 05:32:55 05:41:21 87° 289° (WNW) 05:49:42 29.400- 29.500
ITAMSAT 1 08 Jul 05:38:48 05:39:45 10° 303° (WNW) 05:40:25 435.822/435.867
CUBESAT XI-V 08 Jul 05:40:31 05:44:38 31° 69° (ENE) 05:48:49 437.345
PRISM 08 Jul 05:49:24 05:50:42 11° 62° (ENE) 05:52:10 437.425
YUBILEINY 08 Jul 05:52:01 05:57:44 18° 303° (WNW) 06:03:03 435.215
VERMONT LUNAR 08 Jul 05:55:30 05:57:34 17° 154° (SSE) 05:59:39 437.305
Cubesat XI-IV 08 Jul 05:58:39 06:00:25 12° 86° (E) 06:02:31 437.490
Cosmos 2504 08 Jul 06:13:17 06:20:12 81° 279° (W) 06:27:14 435.465 / 435.565
STRAND 1 08 Jul 06:34:19 06:39:06 41° 69° (ENE) 06:43:56 437.568
BEESAT 3 08 Jul 06:46:16 06:50:20 75° 122° (ESE) 06:54:27 437.485
O/OREOS (USA 219) 08 Jul 06:46:19 06:50:31 44° 108° (ESE) 06:54:47 437.305
CUTE-I 08 Jul 07:00:38 07:05:45 45° 98° (E) 07:10:52 437.470
JAS-2 08 Jul 07:00:56 07:03:31 12° 305° (NW) 07:05:47 435.910
BEESAT 2 08 Jul 07:04:17 07:08:24 90° 132° (SE) 07:12:34 435.950
DANDE 08 Jul 07:07:31 07:12:42 26° 94° (E) 07:17:04 436.750
PHONESAT 2.4 08 Jul 07:11:52 07:13:47 14° 151° (SSE) 07:15:45 2401.200-2431.200
AIST 2 08 Jul 07:12:31 07:16:07 28° 115° (ESE) 07:19:49 435.215
CUSAT 1 08 Jul 07:17:17 07:22:43 38° 97° (E) 07:26:59 437.405
CUBESAT XI-V 08 Jul 07:17:56 07:22:04 29° 266° (W) 07:26:09 437.345
PRISM 08 Jul 07:21:25 07:25:35 74° 258° (WSW) 07:29:48 437.425
AO-7 08 Jul 07:27:01 07:33:10 23° 309° (NW) 07:39:01 29.400- 29.500
ISS 08 Jul 07:27:02 07:30:16 79° 146° (SE) 07:33:32 145.825
VERMONT LUNAR 08 Jul 07:31:03 07:34:02 43° 170° (S) 07:37:01 437.305
Cubesat XI-IV 08 Jul 07:35:58 07:41:22 88° 292° (WNW) 07:46:44 437.490
AUBIESAT-1 08 Jul 07:38:12 07:39:47 13° 58° (ENE) 07:41:31 437.475
RS-15 08 Jul 07:44:14 07:53:17 26° 13° (NNE) 08:02:47 29.354- 29.394
Cosmos 2504 08 Jul 08:10:21 08:13:52 14° 302° (WNW) 08:17:00 435.465 / 435.565
STRAND 1 08 Jul 08:14:10 08:18:28 26° 267° (W) 08:22:41 437.568
M-CUBED/EXP-1 PRIME 08 Jul 08:14:45 08:17:53 38° 66° (ENE) 08:21:12 437.505
BEESAT 3 08 Jul 08:26:15 08:28:49 16° 322° (NW) 08:31:17 437.485
O/OREOS (USA 219) 08 Jul 08:26:46 08:30:12 21° 307° (NW) 08:33:33 437.305
GONETS M04 08 Jul 08:27:54 08:35:59 45° 88° (E) 08:44:09
BRITE-PL 08 Jul 08:34:15 08:38:15 39° 97° (E) 08:42:09 437.365/2234.400
CUTE 1.7 + AOD 2 08 Jul 08:36:45 08:38:57 14° 89° (E) 08:41:20 437.475
CANX-2 08 Jul 08:40:18 08:43:05 17° 91° (E) 08:46:01 2200.000
CUTE-I 08 Jul 08:41:12 08:45:37 26° 295° (WNW) 08:49:54 437.470
BEESAT 2 08 Jul 08:44:51 08:47:06 14° 323° (NW) 08:49:15 435.950
PHONESAT 2.4 08 Jul 08:48:02 08:51:17 40° 166° (SSE) 08:54:33 2401.200-2431.200
DANDE 08 Jul 08:49:26 08:55:49 46° 283° (WNW) 09:00:39 436.750
AIST 2 08 Jul 08:50:43 08:54:37 33° 312° (NW) 08:58:31 435.215
CUSAT 1 08 Jul 09:00:40 09:05:18 24° 286° (WNW) 09:08:57 437.405
ISS 08 Jul 09:04:13 09:06:57 24° 344° (NNW) 09:09:41 145.825
VERMONT LUNAR 08 Jul 09:07:42 09:10:43 49° 187° (S) 09:13:45 437.305
AUBIESAT-1 08 Jul 09:10:57 09:14:10 43° 256° (WSW) 09:17:34 437.475
HO-68 08 Jul 09:11:13 09:17:54 42° 98° (E) 09:24:39 435.675
SEEDS 08 Jul 09:17:06 09:20:53 31° 95° (E) 09:24:43 437.485
AAUSAT CUBESAT 2 08 Jul 09:17:59 09:21:13 22° 93° (E) 09:24:32 437.432
Cubesat XI-IV 08 Jul 09:18:07 09:20:46 14° 302° (WNW) 09:23:11 437.490
UNISAT 6 08 Jul 09:21:22 09:22:34 11° 62° (ENE) 09:24:00 437.425
GOMX 1 08 Jul 09:26:15 09:30:26 90° 101° (ESE) 09:34:36 467.674
UWE-3 08 Jul 09:32:53 09:33:41 11° 87° (E) 09:34:46 435.000/436.395/437.385
Cosmos 2499 08 Jul 09:39:47 09:44:53 23° 83° (E) 09:50:20 435.465 / 435.565
COMPASS 1 08 Jul 09:47:10 09:51:19 53° 99° (E) 09:55:28 437.405
DOVE 4 08 Jul 09:49:51 09:54:00 82° 284° (WNW) 09:58:13 437.250
M-CUBED/EXP-1 PRIME 08 Jul 09:51:32 09:53:04 12° 266° (W) 09:54:27 437.505
RS-15 08 Jul 09:57:52 10:09:11 54° 44° (NE) 10:21:01 29.354- 29.394
ANTELSAT 08 Jul 10:03:11 10:06:53 30° 69° (ENE) 10:10:38 437.575/2403.000
CINEMA 3 08 Jul 10:04:28 10:08:39 64° 101° (E) 10:12:55 145.822/145.860
Oscar 11 08 Jul 10:07:45 10:11:43 34° 96° (E) 10:15:43 145.826/435.025
ZACube-1 08 Jul 10:08:50 10:12:04 21° 93° (E) 10:15:25 437.345
CUTE 1.7 + AOD 2 08 Jul 10:11:03 10:15:15 53° 286° (WNW) 10:19:26 437.475
POPSAT HIP 1 08 Jul 10:12:25 10:14:59 16° 65° (ENE) 10:17:42 437.405
QB50P2 08 Jul 10:12:42 10:15:24 17° 65° (ENE) 10:18:12 145.880/145.840
TIGRISAT 08 Jul 10:13:22 10:17:16 37° 71° (ENE) 10:21:13 435.000
BRITE-PL 08 Jul 10:13:36 10:16:32 18° 295° (WNW) 10:19:19 437.365/2234.400
CANX-2 08 Jul 10:15:10 10:19:16 43° 288° (WNW) 10:23:21 2200.000
CUBEBUG 2 08 Jul 10:24:28 10:28:37 50° 99° (E) 10:32:52 437.445
GONETS M04 08 Jul 10:24:40 10:32:56 42° 289° (WNW) 10:41:05
PHONESAT 2.4 08 Jul 10:25:42 10:29:05 55° 184° (S) 10:32:28 2401.200-2431.200
DELFI C3 08 Jul 10:38:56 10:42:56 52° 99° (E) 10:46:56 145.870
ISS 08 Jul 10:41:47 10:44:08 18° 4° (N) 10:46:27 145.825
FUNcube-1 08 Jul 10:42:25 10:46:32 47° 99° (E) 10:50:44 145.935
VERMONT LUNAR 08 Jul 10:44:48 10:47:16 21° 202° (SSW) 10:49:43 437.305
AISAT 08 Jul 10:48:52 10:49:46 11° 87° (E) 10:50:57 437.250
